Orbital Elements at Epoch 2459000.5 (2020-May-31.0) TDB
Reference: JPL 13 (heliocentric ecliptic J2000)
Element | Value | Uncertainty (1-sigma) | Units |
e | .05265256911981672 | 7.601e-08 | |
a | 2.712749215554326 | 3.2595e-08 | au |
q | 2.569915999977623 | 1.9287e-07 | au |
i | 5.986268418600782 | 5.1875e-06 | deg |
node | 103.4766461196729 | 8.329e-05 | deg |
peri | 238.9443444231517 | 0.00011527 | deg |
M | 12.59053402748923 | 7.4956e-05 | deg |
tp | 2458943.423866242274 (2020-Apr-03.92386624) | 0.00033998 | TDB |
period | 1631.972727123397 4.47 | 2.9414e-05 8.053e-08 | d yr |
n | .2205919216766296 | 3.9758e-09 | deg/d |
Q | 2.855582431131029 | 3.4312e-08 | au |
|
| | Orbit Determination Parameters
Additional Information
|